LKNA Weather Reports


Display with metric or nautical units.
time (UTC)temp
F
wind
direction
speed
MPH
gust
MPH
rain 1hr
in
rain 24hr
in
rain mn
in
humidity
%
barometer
mb
20260506133109 70 130 18.0 0.0 0.00 0.00 0.00 46 1006.0
20260506132048 70 130 16.0 0.0 0.00 0.00 0.00 46
20260506130113 70 120 15.0 0.0 0.00 0.00 0.00 46 1007.0
20260506123110 70 150 10.0 0.0 0.00 0.00 0.00 43 1007.0
20260506122048 70 160 12.0 0.0 0.00 0.00 0.00 46
20260506120246 70 150 10.0 0.0 0.00 0.00 0.00 43 1007.0
20260506112034 70 150 12.0 0.0 0.00 0.00 0.00 40
20260506110113 70 160 9.0 0.0 0.00 0.00 0.00 40 1007.0
20260506103110 70 160 10.0 0.0 0.00 0.00 0.00 40 1008.0
20260506102234 68 180 7.0 0.0 0.00 0.00 0.00 49
20260506100112 70 180 9.0 0.0 0.00 0.00 0.00 46 1008.0
20260506093110 68 170 8.0 0.0 0.00 0.00 0.00 49 1008.0
20260506092028 66 160 9.0 0.0 0.00 0.00 0.00 55
20260506090241 64 160 10.0 0.0 0.00 0.00 0.00 59 1008.0
20260506083110 64 170 10.0 0.0 0.00 0.00 0.00 59 1008.0
20260506082033 63 230 7.0 0.0 0.00 0.00 0.00 63
20260506080104 64 220 7.0 0.0 0.00 0.00 0.00 59 1008.0
20260506073110 63 210 7.0 0.0 0.00 0.00 0.00 63 1008.0
20260506072035 63 200 7.0 0.0 0.00 0.00 0.00 63
20260506070247 61 200 6.0 0.0 0.00 0.00 0.00 67 1008.0
20260506062108 57 220 5.0 0.0 0.00 0.00 0.00 82
20260506060112 57 230 6.0 0.0 0.00 0.00 0.00 82 1008.0
20260506050105 54 210 6.0 0.0 0.00 0.00 0.00 93 1008.0
20260506043110 54 210 6.0 0.0 0.00 0.00 0.00 93 1007.0
20260506042247 52 180 5.0 0.0 0.00 0.00 0.00 93
20260506040242 52 180 5.0 0.0 0.00 0.00 0.00 93 1007.0
20260506033109 54 250 5.0 0.0 0.00 0.00 0.00 87 1007.0
20260506032036 54 260 5.0 0.0 0.00 0.00 0.00 87
20260506030241 54 260 5.0 0.0 0.00 0.00 0.00 87 1007.0
20260506023230 54 280 7.0 0.0 0.00 0.00 0.00 87 1007.0
20260506022034 54 270 9.0 0.0 0.00 0.00 0.00 87
20260506020105 55 270 8.0 0.0 0.00 0.00 0.00 87 1007.0
20260506013109 57 300 13.0 0.0 0.00 0.00 0.00 82 1006.0
20260506012134 57 320 12.0 0.0 0.00 0.00 0.00 76
20260506010111 57 320 12.0 0.0 0.00 0.00 0.00 76 1006.0
20260506005605 57 300 10.0 0.0 0.00 0.00 0.00 76 1006.0
20260506002033 57 250 7.0 0.0 0.00 0.00 0.00 67
20260506000242 57 230 6.0 0.0 0.00 0.00 0.00 67 1006.0
20260505233110 57 110 6.0 0.0 0.00 0.00 0.00 67 1006.0
20260505232032 57 100 7.0 0.0 0.00 0.00 0.00 67
20260505230105 57 110 5.0 0.0 0.00 0.00 0.00 67 1005.0
20260505223110 57 110 8.0 0.0 0.00 0.00 0.00 67 1005.0
20260505222034 57 120 9.0 0.0 0.00 0.00 0.00 67
20260505220242 59 110 10.0 0.0 0.00 0.00 0.00 62 1005.0
20260505213109 59 110 10.0 0.0 0.00 0.00 0.00 58 1005.0
20260505212123 59 110 12.0 0.0 0.00 0.00 0.00 58
20260505210253 59 110 10.0 0.0 0.00 0.00 0.00 58 1005.0
20260505203116 61 100 10.0 0.0 0.00 0.00 0.00 55 1005.0
20260505202055 61 110 12.0 0.0 0.00 0.00 0.00 55
20260505200105 61 110 12.0 0.0 0.00 0.00 0.00 55 1005.0
20260505193110 63 110 12.0 0.0 0.00 0.00 0.00 51 1005.0
20260505192106 63 110 12.0 0.0 0.00 0.00 0.00 51
20260505190104 63 100 12.0 0.0 0.00 0.00 0.00 51 1005.0
20260505183110 66 110 13.0 0.0 0.00 0.00 0.00 45 1005.0
20260505182049 66 120 16.0 0.0 0.00 0.00 0.00 45
20260505180240 68 130 15.0 0.0 0.00 0.00 0.00 42 1005.0
20260505173109 70 130 16.0 0.0 0.00 0.00 0.00 40 1005.0
20260505172104 72 140 16.0 0.0 0.00 0.00 0.00 37
20260505170240 73 140 14.0 0.0 0.00 0.00 0.00 35 1005.0
20260505163104 75 130 14.0 0.0 0.00 0.00 0.00 31 1005.0
20260505162221 75 120 14.0 0.0 0.00 0.00 0.00 27
20260505160112 75 120 14.0 0.0 0.00 0.00 0.00 25 1005.0
20260505153105 77 120 12.0 0.0 0.00 0.00 0.00 23 1005.0
20260505152048 75 120 12.0 0.0 0.00 0.00 0.00 27
20260505150105 77 120 13.0 0.0 0.00 0.00 0.00 25 1006.0
20260505140106 75 140 14.0 0.0 0.00 0.00 0.00 29 1007.0